Back to catalog

FENGYUN 1C DEB

AliveSSO
NORAD 30921·DEBRIS·🇨🇳 China

Launched May 10, 1999 from Taiyuan Satellite Launch Center

Loading…

Next Passes (next 24 hours)

TLE

FreshSource: Space-Track

Epoch: Sep 14, 2026, 06:09 UTC

1 30921U 99025AZK 26257.25678271  .00002559  00000-0  91380-3 0  9995
2 30921  98.8396 355.7678 0015713 303.5435  82.9630 14.34975630  7615

Track FENGYUN 1C DEB in real time with AllMySat

Download on the App Store